Regional Weather Roundup
Issued by NWS Sioux Falls, SD

Home | Current Version | Previous Version | Graphics & Text | Print | Product List | Glossary Off
Versions: 1 2 3 4 5 6 7 8 9 10 11 12 13 14 15 16 17 18 19 20 21 22 23 24 25 26 27 28 29 30 31 32 33 34 35 36 37 38 39 40 41 42 43 44 45 46 47 48 49 50

000
ASUS43 KFSD 242202
RWRFSD

WEATHER ROUNDUP FOR SE SOUTH DAKOTA/SW MINNESOTA/NW IOWA
NATIONAL WEATHER SERVICE SIOUX FALLS SD
500 PM CDT TUE MAY 24 2016

NOTE: "FAIR" INDICATES FEW OR NO CLOUDS BELOW 12,000 FEET WITH NO
SIGNIFICANT WEATHER AND OR OBSTRUCTIONS TO VISIBILITY.


SDZ038>040-050-052>070-242300-
SOUTHEAST SOUTH DAKOTA

CITY           SKY/WX    TMP DP  RH WIND       PRES   REMARKS
BROOKINGS      SUNNY     84  42  22 SW9       29.87R
CHAMBERLAIN    NOT AVBL
HURON          SUNNY     83  45  26 SW7       29.83F
MADISON        FAIR      81  45  28 SW10      29.88S
MITCHELL       SUNNY     85  46  25 MISG      29.84F
SIOUX FALLS    MOSUNNY   83  51  33 S5        29.87S
WINNER         FAIR      82  48  30 E8        29.83F
YANKTON        SUNNY     84  54  34 CALM      29.83F
$$

MNZ071-072-080-081-089-090-097-098-242300-
SOUTHWEST MINNESOTA

CITY           SKY/WX    TMP DP  RH WIND       PRES   REMARKS
FAIRMONT       SUNNY     82  52  34 SE7       29.89F
JACKSON        SUNNY     82  54  36 S5        29.91S
LUVERNE        SUNNY     82  34  17 CALM      29.88S
MARSHALL       SUNNY     87  41  19 W13G18    29.86R
MONTEVIDEO     SUNNY     91  43  18 W7        29.85S
PIPESTONE      SUNNY     84  32  15 N7        29.89S
REDWOOD FALLS  MOSUNNY   84  55  36 S7        29.85R
TRACY          SUNNY     88  41  19 NW7       29.87S
WINDOM         SUNNY     82  55  39 CALM      29.89S
WORTHINGTON    SUNNY     80  60  50 S13       29.90F
$$

IAZ001>003-012>014-020>022-031-032-NEZ013-014-SDZ071-242300-
NORTHWEST IOWA

CITY           SKY/WX    TMP DP  RH WIND       PRES   REMARKS
DENISON        SUNNY     77  66  69 SE7       29.88S
ESTHERVILLE    PTSUNNY   81  59  47 S8        29.89F
SIOUX CITY     SUNNY     82  66  58 SE12      29.86F
SPENCER        SUNNY     82  61  48 SE6       29.89F
STORM LAKE     SUNNY     81  55  41 E7        29.90F
$$

ABBREVIATIONS USED IN REMARKS
   TC - TEMPERATURE IN CELSIUS
  WCI - WIND CHILL INDEX
   HX - HEAT INDEX
  VSB - VISIBILITY





USA.gov is the U.S. government's official web portal to all federal, state and local government web resources and services.